Regional Weather Roundup
Issued by NWS Memphis, TN

Home | Current Version | Previous Version | Text Only | Print | Product List | Glossary On
Versions: 1 2 3 4 5 6 7 8 9 10 11 12 13 14 15 16 17 18 19 20 21 22 23 24 25 26 27 28 29 30 31 32 33 34 35 36 37 38 39 40 41 42 43 44 45 46 47 48 49 50
000
ASUS44 KMEG 232210
RWRMEG
MEMPHIS CWA HOURLY WEATHER ROUNDUP
NATIONAL WEATHER SERVICE MEMPHIS TN
500 PM CDT SUN APR 23 2017

...WEST TENNESSEE...

CITY           SKY/WX    TMP DP  RH WIND       PRES   REMARKS
MEMPHIS INTL   CLOUDY    58  51  78 N8        29.93F
NWS MEMPHIS      N/A     57 N/A N/A MISG        N/A
JACKSON        RAIN      55  51  86 N10G20    29.91S
SOMERVILLE     CLOUDY    55  52  88 NW6       29.91S
BOLIVAR        PTSUNNY   54  50  87 NW7G15    29.90S
LEXINGTON      PTSUNNY   50  50 100 N7        29.87S FOG
SAVANNAH       CLOUDY    50  48  93 N6        29.87S
DYERSBURG      CLOUDY    57  51  80 SE3       29.94R
UNION CITY     MOSUNNY   57  52  82 CALM      29.91S FOG
PARIS          CLOUDY    54  48  82 N7        29.90S
HUNTINGDON     CLOUDY    54  52  94 VRB6      29.90R FOG


...EASTERN ARKANSAS...

CITY           SKY/WX    TMP DP  RH WIND       PRES   REMARKS
JONESBORO      SUNNY     69  39  33 N15G24    29.93S
WEST MEMPHIS   CLOUDY    59  52  77 VRB5      29.93S
BATESVILLE     SUNNY    N/A N/A N/A NW10G16   29.95S
NEWPORT        SUNNY     70  43  37 NE13      29.94S
WALNUT RIDGE   SUNNY     72  39  30 CALM      29.93F
BLYTHEVILLE    CLOUDY    65  50  58 NE16      29.92S
SEARCY         SUNNY     72  39  30 N13G20    29.95F
STUTTGART      SUNNY     70  39  32 NW17      29.95S
PINE BLUFF     SUNNY     69  42  37 N13       29.96S


...NORTH MISSISSIPPI...

CITY           SKY/WX    TMP DP  RH WIND       PRES   REMARKS
TUPELO         CLOUDY    53  45  74 NW12      29.90R
OXFORD         CLOUDY    50  46  87 N8        29.95R
OLIVE BRANCH   CLOUDY   N/A N/A N/A N6        29.92S
TUNICA         CLOUDY    59  50  72 NE7       29.95R
CORINTH        DRIZZLE   52  48  87 N7G13     29.88S
GREENWOOD      CLOUDY    59  49  69 N8G22     29.94R
COLUMBUS       CLOUDY    55  49  81 NW12      29.87F
STARKVILLE     CLOUDY    54  46  76 NW8       29.91S


...SOUTHEAST MISSOURI...

CITY           SKY/WX    TMP DP  RH WIND       PRES   REMARKS
KENNETT        MOSUNNY   68  43  40 N15G25    29.91S
MALDEN         SUNNY     70  36  28 N17G26    29.95R
WEST PLAINS    SUNNY     70  32  24 N14G24    30.00F
POPLAR BLUFF   SUNNY     69  40  34 NE14G21   29.93S
CAPE GIRARDEAU SUNNY     69  37  30 N18G24    29.93F


...NORTHWEST ALABAMA...

CITY           SKY/WX    TMP DP  RH WIND       PRES   REMARKS
MUSCLE SHOALS  CLOUDY    54  46  74 N8        29.85F


...MIDDLE TENNESSEE...

CITY           SKY/WX    TMP DP  RH WIND       PRES   REMARKS
NASHVILLE      RAIN      53  51  93 NW6       29.85R FOG
CLARKSVILLE    LGT RAIN  54  49  83 N7        29.89R
COLUMBIA       CLOUDY   N/A N/A N/A VRB6      29.83S


...WESTERN KENTUCKY...

CITY           SKY/WX    TMP DP  RH WIND       PRES   REMARKS
PADUCAH        MOSUNNY   69  40  34 N17       29.90S
FORT CAMPBELL  LGT RAIN  55  51  86 N13       29.88S


...CENTRAL ARKANSAS...

CITY           SKY/WX    TMP DP  RH WIND       PRES   REMARKS
LITTLE ROCK    SUNNY     72  37  28 N16G24    29.95F


SKY/WX REPORTED AS FAIR MEANS FEW OR NO CLOUDS BELOW
12 THOUSAND FEET.





USA.gov is the U.S. government's official web portal to all federal, state and local government web resources and services.